IRIDIUM 33 DEB

Satellite information

Favourite Embed

Satellite Type and Status

DEBRISIN ORBIT

Key statistics

Satellite IRIDIUM 33 DEB at a glance.

Uptime

10158

Days in orbit

Revolutions

≈ 14.6

Per day

Orbit

LEO

Low Earth Orbit

Inclination

86.3

Latest

Satellite identification and parameters

Extended collection of information and parameters for IRIDIUM 33 DEB.

Object identification

Identified? True

Debris? True

Object name: IRIDIUM 33 DEB

International designator: 1997-051FU

Object number (NORAD): 34376

Object ID (CCSDS): 34376

Country: UNITED STATES OF AMERICA (US)

Current information (Y/N): Y

RCS size: SMALL

Orbital parameters

Period: 98.678 minutes

Inclination: 86.3002 deg

SMA: 7073.6 km

Apoapsis: 715.33 km

Periapsis: 675.599 km

RAAN: 77.9284 deg

Eccentricy: 0.0028084

Argument of periapsis: 0.6979 deg

Mean anomaly: 359.4265 deg

Mean motion: 14.5929149 rev/day

Mean motion (dot): 0.00005855 rev/day2

B* drag term: 0.0012282 1/REarth

Two-line elements (TLE)

Creation date: July 6, 2025, 6:05 p.m.

Reference frame: TEME

Reference center: EARTH

Epoch: July 6, 2025, 9:50 a.m. UTC

TLE line 0: 0 IRIDIUM 33 DEB

TLE line 1: 1 34376U 97051FU 25187.40991086 .00005855 00000-0 12282-2 0 9995

TLE line 2: 2 34376 86.3002 77.9284 0028084 0.6979 359.4265 14.59291490856810

Live tracking on map

Real-time ground track for satellite IRIDIUM 33 DEB.

In-orbit conjunctions

A list of the most updated potential collisions computed for object IRIDIUM 33 DEB.

Target Orbit TCA Probability of collision Miss distance Type
SL-16 DEB LEO 2024-11-13 20:45:17 0.0002230114 817.0 (m) DEBRIS
FENGYUN 1C DEB SSO 2024-11-10 18:08:58 0.000506014 236.0 (m) DEBRIS
ATLAS AGENA D R/B LEO 2024-10-03 00:30:32 0.0002249027 908.0 (m) ROCKET BODY

Associated space launch

Iridium provides global mobile telecommunications services using a constellation of 66 low earth orbit satellites in a 86.4° inclined orbit. Although 77 satellites were originally envisioned for the system and spawned the name based on the 77th element in the periodic table, the system has been scaled back. Motorola's Satellite Communications Group designed and manufactured the Iridium satellites with Lockheed Martin providing the LM-700A spacecraft buses.

IRIDIUM 33 DEB was lifted into orbit during the mission ‘Proton-K/17S40 | Iridium 27 to 33’, on board a Proton-K/17S40 space rocket.

The launch took place on Sept. 14, 1997, 1:36 a.m. from 81/23 (81L).

For more information about the launch, click the button.

Launch to space Proton-K/17S40 | Iridium 27 to 33
Proton-K/17S40 | Iridium 27 to 33

Agency: N/A

Status: Launch Successful

Launch date: Sept. 14, 1997, 1:36 a.m. UTC

Rocket: Proton-K/17S40

Launch pad: 81/23 (81L)

Location: Baikonur Cosmodrome, Republic of Kazakhstan

...

Latest news about this satellite

There are no fresh news available about this satellite. Check back as we update our databases every day.


Newsletter sign-up

Weekly statistics, charts and insights to help you stay on top of the space industry.